Home > Weather > Provo > Past weeks

Flag for USA Past Weather in Provo, Utah, USA — Yesterday and Last 2 Weeks

Now
79 °F

Scattered clouds.


Feels Like: 78 °F
Forecast: 52 / 76 °F
Wind: 6 mph from North

Location: Provo Municipal

Current Time: May 29, 2016 at 3:23:14 PM

Latest Report: May 29, 2016 at 2:47 PM


Visibility: 10 mi

Pressure: 30.04 "Hg (25.64 "Hg at 1386m altitude)

Humidity: 28%

Dew Point: 43 °F

Location of ProvoLocation

Past Weather in Provo — Graph

°F

Provo Temperature Yesterday

Maximum temperature yesterday: 72 °F (at 1:47 PM)
Minimum temperature yesterday: 46 °F (at 5:55 AM)
Average temperature yesterday: 58 °F

High & Low Weather Summary for the Past Weeks

 TemperatureHumidityPressure
High84 °F (May 14, 2:47 PM)88% (May 20, 3:35 AM)30.14 "Hg (May 20, 3:35 AM)
Low41 °F (May 22, 4:15 AM)20% (May 14, 1:48 PM)29.62 "Hg (May 19, 7:52 PM)
Average56 °F56%29.93 "Hg
* Reported May 14 1:48 PM — May 29 1:47 PM, Provo, Weather by CustomWeather, © 2016

Note: Actual official high and low records may vary slightly from our data, if they occured in-between our weather recording intervals... More about our weather records

Advertising

Provo Weather History for the Previous 24 Hours

Scroll right to see more
 ConditionsComfort  
Time TempWeatherWind HumidityBarometerVisibility
1:47 PM
Sun, May 29
75 °FScattered clouds.6 mph34%30.05 "Hg10 mi
12:47 PM72 °FScattered clouds.6 mph38%30.08 "Hg10 mi
11:47 AM70 °FScattered clouds.7 mph40%30.12 "Hg10 mi
10:47 AM66 °FScattered clouds.7 mph43%30.12 "Hg10 mi
9:47 AM63 °FScattered clouds.No wind49%30.13 "Hg10 mi
8:47 AM59 °FScattered clouds.6 mph59%30.14 "Hg10 mi
7:47 AM50 °FPassing clouds.10 mph71%30.12 "Hg10 mi
6:47 AM50 °FPassing clouds.No wind67%30.11 "Hg10 mi
6:35 AM50 °FClear.7 mph67%30.11 "Hg10 mi
6:15 AM52 °FClear.9 mph62%30.11 "Hg10 mi
5:55 AM52 °FClear.No wind62%30.10 "Hg10 mi
5:35 AM52 °FClear.No wind62%30.10 "Hg10 mi
5:15 AM52 °FClear.No wind62%30.10 "Hg10 mi
4:55 AM52 °FClear.No wind67%30.09 "Hg10 mi
4:35 AM54 °FClear.No wind63%30.09 "Hg10 mi
4:15 AM54 °FClear.No wind58%30.09 "Hg10 mi
3:55 AM55 °FClear.7 mph59%30.09 "Hg10 mi
3:35 AM55 °FClear.9 mph59%30.09 "Hg10 mi
3:15 AM55 °FClear.5 mph59%30.09 "Hg10 mi
2:55 AM54 °FClear.No wind67%30.09 "Hg10 mi
2:35 AM54 °FClear.6 mph58%30.09 "Hg10 mi
2:15 AM55 °FClear.No wind55%30.08 "Hg10 mi
1:55 AM57 °FClear.5 mph59%30.08 "Hg10 mi
1:35 AM57 °FClear.6 mph63%30.08 "Hg10 mi
1:15 AM57 °FClear.6 mph63%30.09 "Hg10 mi
12:55 AM54 °FClear.6 mph72%30.09 "Hg10 mi
12:35 AM59 °FClear.No wind55%30.09 "Hg10 mi
12:15 AM57 °FClear.5 mph63%30.09 "Hg10 mi
11:55 PM
Sat, May 28
59 °FClear.7 mph59%30.09 "Hg10 mi
11:35 PM61 °FClear.7 mph55%30.09 "Hg10 mi
11:15 PM61 °FClear.6 mph55%30.10 "Hg10 mi
10:55 PM63 °FClear.5 mph49%30.09 "Hg10 mi
10:35 PM64 °FPartly cloudy.8 mph49%30.10 "Hg10 mi
9:55 PM64 °FPassing clouds.5 mph49%30.09 "Hg10 mi
9:35 PM64 °FPassing clouds.12 mph49%30.08 "Hg10 mi
9:15 PM64 °FScattered clouds.18 mph52%30.07 "Hg10 mi
8:55 PM64 °FSunny.12 mph52%30.06 "Hg10 mi
7:47 PM70 °FScattered clouds.12 mph46%30.03 "Hg10 mi
6:47 PM70 °FScattered clouds.12 mph43%30.01 "Hg10 mi
4:47 PM70 °FPartly sunny.6 mph35%30.01 "Hg10 mi
3:47 PM72 °FPartly sunny.8 mph29%30.02 "Hg10 mi
Weather by CustomWeather, © 2016

See weather overviewHow to use our weather pages